[[{"header":{"parameterUnit":"m.s-1","parameterCategory":1,"la1":30.2991,"la2":30.254,"lo1":-89.0895,"lo2":-89.0444,"dy":0.0017,"dx":0.0017,"nx":28,"ny":28,"refTime":"2025-03-29T21:00:00:Z","depth":0,"parameterNumber":2,"parameterNumberName":"U-component_of_WINDS"},"data":[0,0,0,0,0,0,0,0,0,0,0,0,0,0,0,0,0,0,0,0,0,0,0,0,0,0,0,0,0,0,0,0,0,0,0,0,0,0,0,0,0,0,0,0,0,0,0,0,0,0,0,0,0,0,0,0,0,0,2.2773,2.2772,0,2.2685,2.2684,2.2683,2.2599,2.2598,2.2597,2.2596,2.2504,2.2503,2.2501,0,0,0,0,0,0,0,0,0,0,0,0,0,2.2866,2.2865,2.2773,2.2772,2.2771,2.2685,2.2684,2.2683,2.26,2.2598,2.2597,2.2596,2.2505,2.2503,2.2501,0,0,0,0,0,0,0,0,0,0,0,0,0,2.2807,2.2864,2.2773,2.2719,2.2713,2.2685,2.2684,2.2682,2.26,2.2598,2.2597,2.2595,2.2505,2.2503,2.2501,2.2518,0,0,2.2494,2.2493,0,0,0,0,0,0,0,0,2.281,2.2803,2.2728,2.2723,2.2716,2.2652,2.2683,2.2627,2.26,2.2643,2.2596,2.2594,2.2554,2.2548,2.2535,2.2514,2.251,2.2494,2.2492,2.2491,2.2491,0,0,0,0,0,0,0,2.2814,2.2807,2.2738,2.2727,2.272,2.2698,2.2688,2.2672,2.2608,2.2639,2.2633,2.2624,2.2551,2.2537,2.2532,2.2509,2.2494,2.2492,2.249,2.249,2.2497,2.2499,0,0,0,0,0,0,2.2827,2.2811,2.2741,2.2735,2.276,2.2698,2.2686,2.2674,2.2608,2.2597,2.2625,2.262,2.2542,2.2535,2.2528,2.2544,2.2491,2.2489,2.2488,2.2496,2.2497,2.2499,0,0,0,0,0,0,2.2829,2.2822,2.2744,2.2771,2.276,2.2698,2.2684,2.2673,2.2659,2.2598,2.2586,2.2623,2.254,2.2532,2.2521,2.254,2.2488,2.2486,2.2494,2.2496,2.2498,2.2576,0,0,0,0,0,0,2.2832,2.2823,2.283,2.2772,2.2759,2.274,2.2686,2.2672,2.2656,2.2649,2.2593,2.2582,2.2538,2.2525,2.2519,2.2536,2.2485,2.2492,2.2495,2.2498,2.2572,2.2581,2.2589,0,0,0,0,0,2.2836,2.2855,2.2831,2.2823,2.2766,2.2741,2.2733,2.2683,2.2658,2.2664,2.2624,2.2584,2.2539,2.2525,2.2517,2.2534,2.249,2.2494,2.2497,2.2568,2.2579,2.2589,0,0,0,0,0,0,2.2916,2.2846,2.2819,2.2819,2.2787,2.2727,2.2733,2.2697,2.267,2.2665,2.2603,2.2591,2.2588,2.2559,2.2545,2.2547,2.2509,2.2511,2.2565,2.2576,2.2584,2.2591,2.2483,0,0,0,0,0,2.2934,2.292,2.286,2.2866,2.2852,2.2795,2.2783,2.2747,2.271,2.2696,2.2656,2.2621,2.2599,2.2586,2.2562,2.2568,2.2554,2.2575,2.2583,2.2591,2.2593,2.2593,2.2602,2.251,2.251,2.251,0,0,2.297,2.293,2.2925,2.2881,2.2852,2.2838,2.2784,2.2772,2.2761,2.2694,2.2682,2.2651,2.2608,2.2606,2.2603,2.2583,2.2615,2.2595,2.2601,2.26,2.2598,2.2606,2.2614,2.2513,2.2512,2.2512,0,0,2.3029,2.2998,2.3,2.2972,2.2928,2.2891,2.2891,2.2837,2.2814,2.2801,2.275,2.2736,2.2699,2.2671,2.2652,2.27,2.2662,2.2694,2.2738,2.2739,2.2746,2.2752,2.2769,2.2776,2.2697,2.2697,2.2697,0,2.3079,2.3058,2.3005,2.2997,2.2978,2.2917,2.2918,2.2893,2.2844,2.2832,2.281,2.2763,2.273,2.2719,2.2731,2.2718,2.2716,2.27,2.275,2.2755,2.276,2.2775,2.2781,2.2701,2.27,2.27,2.27,0,2.3122,2.3108,2.3114,2.3069,2.3051,2.3048,2.2993,2.2982,2.2948,2.2912,2.29,2.2858,2.2825,2.2819,2.2786,2.2804,2.2793,2.2761,2.2722,2.2774,2.2787,2.2792,2.2707,2.2705,2.2704,2.2703,0,0,2.3228,2.3154,2.3158,2.3136,2.3083,2.3071,2.3064,2.3032,2.3023,2.2991,2.2983,2.2953,2.2924,2.2902,2.2864,2.2865,2.2905,2.2833,2.2831,2.2847,2.2922,2.2946,2.2954,2.288,2.2881,2.2881,2.2926,0,2.3278,2.3263,2.3216,2.3214,2.32,2.3142,2.3136,2.3102,2.3069,2.3051,2.3014,2.2994,2.2956,2.2943,2.2941,2.2901,2.2919,2.2897,2.2871,2.287,2.2883,2.2961,2.2986,2.303,2.293,2.2931,2.2932,0,2.3335,2.3307,2.3305,2.3253,2.3245,2.324,2.3207,2.3191,2.3151,2.3127,2.3103,2.3061,2.305,2.3014,2.2996,2.2982,2.2969,2.2947,2.2948,2.2943,2.2904,2.2957,2.3042,2.3049,2.2939,2.2939,2.2938,0,2.3412,2.3374,2.3368,2.3351,2.329,2.3288,2.3263,2.3222,2.3205,2.3176,2.3164,2.3134,2.3117,2.3094,2.3045,2.3023,2.3033,2.2993,2.3011,2.3012,2.3015,2.3016,2.3099,2.3008,2.3008,2.3008,2.3007,0,2.3472,2.3473,2.3402,2.3398,2.3397,2.3342,2.3342,2.331,2.3274,2.3262,2.321,2.32,2.3136,2.3118,2.3079,2.307,2.3063,2.3042,2.3032,2.3047,2.3049,2.3036,2.3032,2.3009,2.3009,2.3009,2.3008,0,2.3558,2.3511,2.35,2.3443,2.3429,2.3431,2.3381,2.3375,2.3338,2.3324,2.3317,2.326,2.3236,2.3185,2.3147,2.3121,2.3121,2.3103,2.3135,2.3128,2.3149,2.3148,2.3227,2.3234,2.314,2.3141,2.3141,0,2.36,2.3599,2.3543,2.3531,2.3508,2.349,2.3474,2.3419,2.3404,2.3359,2.3357,2.333,2.3304,2.3269,2.3223,2.3194,2.3174,2.3204,2.3169,2.3184,2.3173,2.3174,2.3173,2.3211,2.3213,2.3214,2.3215,0,2.3678,2.3655,2.3633,2.3603,2.3585,2.3559,2.3529,2.3523,2.3461,2.3446,2.3422,2.3402,2.3364,2.3337,2.3301,2.3273,2.3233,2.3226,2.3228,2.3243,2.3261,2.3251,2.3155,2.3224,2.3223,2.3222,2.3222,2.3222,2.3742,2.3739,2.3698,2.3676,2.3648,2.3622,2.3613,2.3576,2.3555,2.352,2.3489,2.3467,2.3427,2.3374,2.3349,2.333,2.3311,2.3315,2.3315,2.3317,2.3323,2.3265,2.3324,2.3323,2.3323,2.3323,2.3322,0,2.3817,2.3788,2.3768,2.373,2.3712,2.3677,2.3643,2.363,2.3612,2.3578,2.3555,2.3526,2.3499,2.3452,2.3421,2.3415,2.3396,2.3409,2.3408,2.3402,2.3343,2.3343,2.3424,2.3424,2.3424,2.3424,2.3424,2.3424,2.3854,2.3846,2.3818,2.3795,2.3766,2.3745,2.3728,2.3704,2.3676,2.3647,2.3625,2.3595,2.3555,2.3521,2.3494,2.3481,2.3471,2.349,2.347,2.3416,2.3406,2.3397,2.3397,2.3488,2.3488,2.3531,2.3531,2.3532]},{"header":{"parameterUnit":"m.s-1","parameterCategory":1,"la1":30.2991,"la2":30.254,"lo1":-89.0895,"lo2":-89.0444,"dy":0.0017,"dx":0.0017,"nx":28,"ny":28,"refTime":"2025-03-29T21:00:00:Z","depth":0,"parameterNumber":3,"parameterNumberName":"V-component_of_WINDS"},"data":[0,0,0,0,0,0,0,0,0,0,0,0,0,0,0,0,0,0,0,0,0,0,0,0,0,0,0,0,0,0,0,0,0,0,0,0,0,0,0,0,0,0,0,0,0,0,0,0,0,0,0,0,0,0,0,0,0,0,6.0447,6.0449,0,6.0643,6.0646,6.0648,6.0644,6.0641,6.0639,6.0636,6.0838,6.0846,6.0853,0,0,0,0,0,0,0,0,0,0,0,0,0,6.0067,6.0074,6.0446,6.0449,6.0451,6.0643,6.0646,6.0648,6.0645,6.0641,6.0638,6.0635,6.0835,6.0845,6.0854,0,0,0,0,0,0,0,0,0,0,0,0,0,6.0244,6.0076,6.0446,6.0473,6.0477,6.0642,6.0646,6.0649,6.0645,6.0641,6.0637,6.0634,6.0832,6.0844,6.0855,6.1007,0,0,6.0891,6.0896,0,0,0,0,0,0,0,0,6.0234,6.0258,6.0466,6.0471,6.0476,6.0615,6.0586,6.0769,6.0646,6.0581,6.0636,6.0632,6.0767,6.0784,6.083,6.1017,6.1025,6.0892,6.0899,6.0904,6.0908,0,0,0,0,0,0,0,6.0222,6.025,6.0524,6.0469,6.0475,6.0474,6.0495,6.062,6.0694,6.0587,6.0587,6.061,6.0769,6.0818,6.0834,6.1028,6.0892,6.0902,6.091,6.0914,6.1352,6.1356,0,0,0,0,0,0,6.0204,6.024,6.0518,6.053,6.0343,6.0485,6.0508,6.0575,6.0693,6.0707,6.0613,6.0609,6.08,6.082,6.0841,6.1029,6.0904,6.0915,6.0922,6.1347,6.1353,6.1357,0,0,0,0,0,0,6.0196,6.0229,6.051,6.0385,6.0421,6.0495,6.057,6.0581,6.063,6.0713,6.0726,6.065,6.0798,6.0825,6.0966,6.1036,6.0921,6.0931,6.1342,6.1349,6.1355,6.1404,0,0,0,0,0,0,6.0185,6.0226,6.0285,6.0386,6.0427,6.0632,6.0574,6.0587,6.065,6.0647,6.0751,6.0764,6.0797,6.0949,6.0978,6.105,6.0941,6.1336,6.1345,6.1353,6.1396,6.1411,6.1424,0,0,0,0,0,6.0172,6.029,6.0288,6.0322,6.0502,6.0636,6.066,6.0694,6.0656,6.0715,6.0769,6.0761,6.1023,6.0963,6.0996,6.1072,6.1332,6.1342,6.1352,6.139,6.1408,6.1424,0,0,0,0,0,0,6.0195,6.0304,6.0303,6.0458,6.0538,6.0635,6.0712,6.0712,6.0805,6.0798,6.0837,6.086,6.1002,6.1051,6.0983,6.1226,6.1172,6.119,6.119,6.1208,6.1222,6.1208,6.095,0,0,0,0,0,6.0218,6.0318,6.0408,6.0536,6.0576,6.0637,6.0696,6.0716,6.0801,6.0834,6.0898,6.098,6.1081,6.1147,6.1244,6.1402,6.1426,6.1471,6.1485,6.1496,6.1511,6.16,6.1622,6.1391,6.1391,6.1391,0,0,6.0267,6.0339,6.04,6.0542,6.0607,6.0709,6.0666,6.0775,6.0852,6.0851,6.099,6.1039,6.1133,6.1284,6.1354,6.1329,6.158,6.1509,6.1517,6.1527,6.1613,6.1635,6.1654,6.1398,6.1397,6.1396,0,0,6.041,6.0473,6.0588,6.0653,6.0751,6.0791,6.0818,6.0916,6.0949,6.1088,6.109,6.1181,6.1353,6.1421,6.1478,6.1645,6.1643,6.1676,6.175,6.1836,6.1854,6.1871,6.1933,6.1954,6.169,6.169,6.169,0,6.0458,6.0613,6.0647,6.0758,6.0821,6.0824,6.0941,6.1003,6.1127,6.1171,6.1141,6.1358,6.1422,6.1589,6.163,6.1675,6.1709,6.1665,6.1849,6.1866,6.1882,6.1941,6.1964,6.1694,6.1693,6.1693,6.1693,0,6.0669,6.0777,6.0857,6.0978,6.105,6.1163,6.1214,6.1283,6.1296,6.1339,6.1481,6.1557,6.167,6.1711,6.1724,6.1881,6.1863,6.184,6.1788,6.1907,6.1963,6.1986,6.1699,6.1698,6.1697,6.1696,0,0,6.0834,6.0972,6.1001,6.1057,6.1164,6.1248,6.1361,6.1472,6.1531,6.1616,6.1713,6.1859,6.1839,6.1904,6.1925,6.2,6.213,6.1969,6.1972,6.1998,6.231,6.2328,6.2354,6.2128,6.2132,6.2136,6.2303,0,6.099,6.1192,6.1225,6.1403,6.1503,6.1507,6.1606,6.1683,6.1725,6.1816,6.1863,6.1967,6.1931,6.1971,6.2045,6.2099,6.2194,6.2087,6.222,6.2225,6.2199,6.2383,6.2403,6.2557,6.2325,6.2329,6.2332,0,6.1199,6.1291,6.1478,6.1574,6.1617,6.1705,6.181,6.1897,6.1984,6.201,6.2082,6.2094,6.2212,6.2151,6.2316,6.2242,6.2298,6.2332,6.2339,6.2355,6.2287,6.2407,6.2607,6.2631,6.2366,6.2364,6.2361,0,6.1303,6.1473,6.1608,6.1655,6.1768,6.1831,6.1881,6.1964,6.2029,6.212,6.2163,6.2266,6.2324,6.2403,6.2443,6.2395,6.2606,6.2548,6.2632,6.2631,6.2678,6.2676,6.2893,6.271,6.2709,6.2709,6.2708,0,6.1475,6.1591,6.1657,6.174,6.1869,6.1905,6.2032,6.2081,6.2155,6.2248,6.2256,6.2343,6.2389,6.2483,6.2515,6.2647,6.2672,6.2697,6.2705,6.2699,6.2696,6.2738,6.2729,6.2715,6.2714,6.2713,6.2712,0,6.1615,6.1663,6.1811,6.1906,6.1933,6.2024,6.2106,6.2187,6.2229,6.2346,6.2376,6.2441,6.2553,6.2599,6.2736,6.2757,6.291,6.2908,6.2881,6.2884,6.2966,6.2959,6.3221,6.3258,6.3047,6.3049,6.3051,0,6.1723,6.1812,6.1917,6.198,6.2032,6.2133,6.22,6.2238,6.2307,6.2413,6.2482,6.2593,6.2684,6.2861,6.2922,6.3026,6.3029,6.3113,6.3044,6.3036,6.3033,6.3029,6.3039,6.3127,6.3129,6.313,6.3132,0,6.1911,6.193,6.2026,6.213,6.2209,6.2293,6.2375,6.2426,6.2477,6.2554,6.2668,6.2738,6.2877,6.2988,6.3096,6.3148,6.315,6.3152,6.3178,6.3174,6.3156,6.3169,6.2918,6.3147,6.3145,6.3144,6.3144,6.3143,6.204,6.212,6.2207,6.2313,6.2378,6.2455,6.2536,6.2588,6.2683,6.28,6.2816,6.2939,6.3024,6.3169,6.3225,6.3322,6.3301,6.3337,6.3347,6.3356,6.3362,6.3137,6.3341,6.3341,6.334,6.334,6.334,0,6.223,6.2286,6.2383,6.2498,6.2582,6.2574,6.2664,6.2735,6.2843,6.2922,6.3012,6.3143,6.325,6.3318,6.3427,6.3491,6.3495,6.3519,6.3516,6.3528,6.3374,6.3342,6.3514,6.3514,6.3514,6.3514,6.3514,6.3514,6.2339,6.2475,6.2504,6.2672,6.2727,6.2847,6.29,6.2971,6.3034,6.3181,6.327,6.3313,6.3389,6.3503,6.3601,6.3619,6.366,6.3686,6.3702,6.3557,6.3539,6.3522,6.3493,6.3693,6.3694,6.3849,6.385,6.3852]}]]